East Hartford, CT

12:43 PM EST on February 27, 2017 (GMT -0500)
Hartford-brainard

Weather History for KHFD - November, 2013

Change the Weather History Date:

Tuesday, November 19, 2013

  Actual Average Record
Temperature  
Mean Temperature 41 °F -  
Max Temperature 48 °F 50 °F 71 °F (1941)
Min Temperature 34 °F 31 °F 12 °F (1924)
Degree Days  
Heating Degree Days 24    
Moisture  
Dew Point 22 °F    
Average Humidity 45    
Maximum Humidity 52    
Minimum Humidity 35    
Precipitation  
Precipitation 0.00 in - - ()
Sea Level Pressure  
Sea Level Pressure 30.04 in    
Wind  
Wind Speed 11 mph (NW)    
Max Wind Speed 22 mph    
Max Gust Speed 32 mph    
Visibility 10 miles    
Events      
Averages and records for this station are not official NWS values.
T = Trace of Precipitation, MM = Missing Value Source: NWS Daily Summary

Daily Weather History Graph

Daily Weather History Graph

Search for Another Location

Airport or City:

Trip Planner

Search our weather history database for the weather conditions in past years. The results will help you decide how hot, cold, wet, or windy it might be!

Date:

Astronomy

Nov. 19, 2013 Rise Set
Actual Time 6:44 AM EST 4:26 PM EST
Civil Twilight 6:14 AM EST 4:56 PM EST
Nautical Twilight 5:40 AM EST 5:30 PM EST
Astronomical Twilight 5:07 AM EST 6:03 PM EST
Moon 6:15 PM EST (11/19) 8:22 AM EST (11/19)
Length of Visible Light 10h 42m
Length of Day
9h 41m
Waning Gibbous, 96% of the Moon is Illuminated
Nov 19
Waning Gibbous
Nov 25
Last Quarter
Dec 2
New
Dec 9
First Quarter
Dec 17
Full

Hourly Weather History & Observations

Time (EST) Temp. Windchill Dew Point Humidity Pressure Visibility Wind Dir Wind Speed Gust Speed Precip Events Conditions
12:53 AM 48.0 °F - 28.9 °F 48% 29.73 in 10.0 mi NW 5.8 mph - N/A   Partly Cloudy
1:53 AM 48.0 °F - 28.9 °F 48% 29.76 in 10.0 mi NW 10.4 mph 19.6 mph N/A   Overcast
2:53 AM 46.0 °F 40.6 °F 27.0 °F 47% 29.78 in 10.0 mi NW 11.5 mph 23.0 mph N/A   Scattered Clouds
3:53 AM 44.1 °F 39.5 °F 21.0 °F 40% 29.83 in 10.0 mi WNW 8.1 mph - N/A   Partly Cloudy
4:53 AM 43.0 °F 37.7 °F 21.0 °F 42% 29.84 in 10.0 mi WNW 9.2 mph - N/A   Clear
5:53 AM 43.0 °F 37.2 °F 21.0 °F 42% 29.86 in 10.0 mi WNW 10.4 mph 19.6 mph N/A   Mostly Cloudy
6:53 AM 43.0 °F 35.4 °F 23.0 °F 45% 29.90 in 10.0 mi NW 16.1 mph 23.0 mph N/A   Overcast
7:53 AM 42.1 °F 32.8 °F 24.1 °F 49% 29.94 in 10.0 mi NW 21.9 mph 32.2 mph N/A   Mostly Cloudy
8:53 AM 43.0 °F 35.4 °F 24.1 °F 47% 29.97 in 10.0 mi NNW 16.1 mph 28.8 mph N/A   Partly Cloudy
9:53 AM 44.1 °F 37.1 °F 21.9 °F 42% 29.99 in 10.0 mi WNW 15.0 mph 24.2 mph N/A   Clear
10:53 AM 45.0 °F 38.5 °F 21.9 °F 40% 30.00 in 10.0 mi NW 13.8 mph 24.2 mph N/A   Scattered Clouds
11:53 AM 45.0 °F 38.2 °F 21.0 °F 39% 30.01 in 10.0 mi WNW 15.0 mph 26.5 mph N/A   Partly Cloudy
12:53 PM 46.0 °F 38.5 °F 21.0 °F 37% 30.02 in 10.0 mi NNW 19.6 mph 26.5 mph N/A   Scattered Clouds
1:53 PM 46.0 °F 41.0 °F 19.9 °F 35% 30.04 in 10.0 mi NW 10.4 mph 23.0 mph N/A   Clear
2:53 PM 44.1 °F 37.7 °F 19.9 °F 38% 30.08 in 10.0 mi NW 12.7 mph 25.3 mph N/A   Clear
3:53 PM 43.0 °F 36.0 °F 19.9 °F 40% 30.11 in 10.0 mi NW 13.8 mph 24.2 mph N/A   Clear
4:53 PM 39.9 °F 32.9 °F 19.9 °F 45% 30.15 in 10.0 mi NW 11.5 mph 19.6 mph N/A   Clear
5:53 PM 39.0 °F 33.4 °F 19.9 °F 46% 30.19 in 10.0 mi NNW 8.1 mph - N/A   Clear
6:53 PM 37.9 °F 30.0 °F 19.9 °F 48% 30.22 in 10.0 mi NW 12.7 mph 21.9 mph N/A   Clear
7:53 PM 37.0 °F 31.6 °F 19.9 °F 50% 30.26 in 10.0 mi WNW 6.9 mph - N/A   Clear
8:53 PM 36.0 °F 28.0 °F 19.0 °F 50% 30.28 in 10.0 mi NNW 11.5 mph - N/A   Clear
9:53 PM 35.1 °F 25.9 °F 18.0 °F 50% 30.30 in 10.0 mi NNW 13.8 mph - N/A   Clear
10:53 PM 34.0 °F 26.0 °F 18.0 °F 52% 30.31 in 10.0 mi NNW 10.4 mph - N/A   Clear
11:53 PM 34.0 °F 26.6 °F 18.0 °F 52% 30.34 in 10.0 mi NW 9.2 mph - N/A   Clear